Location: Unspecified
(0.0000°N, 0.0000°E)
Time: 06:32:34
(UTC+00:00)

ISS - Pass Details

Date: 22 April 2019
Orbit: 408 x 410 km, 51.6° (Epoch: 19 May)

Event Time Altitude Azimuth Distance (km) Brightness Sun altitude
Exits shadow 05:05:09 23° 267° (W) 908 -2.7 -13.1°
Maximum altitude 05:06:19 30° 305° (NW) 757 -2.8 -12.8°
Drops below altitude 10° 05:09:15 10° 9° (N) 1,462 -0.7 -12.1°
Sets 05:11:29 0° 20° (NNE) 2,320 0.5 -11.5°
